Regional Weather Roundup
Issued by NWS

Home | Current Version | Previous Version | Graphics & Text | Print | Product List | Glossary On
Versions: 1 2 3 4 5 6 7 8 9 10 11 12 13 14 15 16 17 18 19 20 21 22 23 24 25 26 27 28 29 30 31 32 33 34 35 36 37 38 39 40 41 42 43 44 45 46 47 48 49 50
000
ASUS43 KMPX 210110
RWRMN
WEATHER ROUNDUP FOR MINNESOTA
NATIONAL WEATHER SERVICE TWIN CITIES/CHANHASSEN MN
700 PM CST FRI JAN 20 2017


NOTE: "FAIR" INDICATES FEW OR NO CLOUDS BELOW 12,000 FEET WITH NO
SIGNIFICANT WEATHER AND/OR OBSTRUCTIONS TO VISIBILITY. N/A MEANS
CURRENT SKY AND/OR WEATHER CONDITIONS ARE NOT AVAILABLE.

MNZ060>063-068>070-210200-
   Twin Cities Metro

CITY           SKY/WX    TMP DP  RH WIND       PRES   REMARKS
TWIN CITIES    FOG       35  34  96 SE12      29.56S VSB 1/2 WCI  27
ST PAUL        CLOUDY    35  35 100 SE7       29.58S FOG     WCI  29
CRYSTAL        FOG       36  33  89 SE8       29.55S VSB 1/2
BLAINE         FOG       37  37 100 SE6       29.56S VSB 1/2
LAKEVILLE      FOG       32  32 100 E5        29.55F VSB 1/2 WCI  27
EDEN PRAIRIE   CLOUDY    36  33  89 E9        29.53F FOG
SOUTH ST PAUL  FOG       36  36  99 SE6       29.56F VSB 1/2
LAKE ELMO      FOG       36  36 100 SE6       29.57F VSB 1/4
$$
MNZ001>005-007-008-013>017-022>024-027-028-210200-
   Northwest Minnesota

CITY           SKY/WX    TMP DP  RH WIND       PRES   REMARKS
BEMIDJI        CLOUDY    33  33  99 SE9       29.51S FOG     WCI  26
HALLOCK        CLOUDY    36  36 100 SE10      29.47S
ROSEAU         RAIN      36  30  80 SE8       29.50F
WARROAD        DRIZZLE   36  30  80 SE7       29.52S
THIEF RVR FALL CLOUDY    34  33  96 SE13      29.49S WCI  25
CROOKSTON      CLOUDY    36  36 100 SE10      29.47F
FOSSTON        CLOUDY    34  34 100 SE7       29.50S WCI  28
DETROIT LAKES  CLOUDY    34  34 100 SE12      29.49S FOG     WCI  25
MOORHEAD       CLOUDY    36  34  93 SE8       29.46R
PARK RAPIDS    FOG       34  32  92 SE10      29.50S VSB 1   WCI  26
MAHNOMEN       CLOUDY    34  33  96 SE9       29.48S WCI  27
$$
MNZ006-009>011-018-025>026-210200-
   North Central Minnesota

CITY           SKY/WX    TMP DP  RH WIND       PRES   REMARKS
BAUDETTE       LGT RAIN  35  33  92 SE12      29.53S WCI  27
FLAG ISLAND    RAIN      36  34  93 SE7       29.52S
INTL FALLS     LGT RAIN  36  34  92 SE6       29.57R FOG
WASKISH        CLOUDY    36  36 100 SE7       29.53F FOG
BIG FORK       LGT SNOW  36  34  93 SE6       29.55S
LONGVILLE      CLOUDY    36  34  93 SE5       29.54R FOG
GRAND RAPIDS   CLOUDY    34  33  96 SE7       29.57S WCI  28
CRANE LAKE     LGT RAIN  34  34 100 CALM      29.60S VSB 3/4
ORR            LGT RAIN  36  32  87 CALM      29.56R
COOK           LGT RAIN  34  34 100 CALM      29.59R
WALKER         CLOUDY    33  33  99 SE6       29.52S FOG     WCI  28
$$
MNZ012-019>021-037-210200-
   Northeast Minnesota

CITY           SKY/WX    TMP DP  RH WIND       PRES   REMARKS
DULUTH         LGT RAIN  34  34 100 E10       29.58S VSB 1/4 WCI  26
ELY            LGT RAIN  34  34 100 E5        29.59S WCI  30
HIBBING        CLOUDY    32  32 100 SE8       29.56F FOG     WCI  25
EVELETH        LGT SNOW  33  32  98 CALM      29.59S
DULUTH HARBOR  CLOUDY    34  34 100 E9        29.62S FOG     WCI  26
TWO HARBORS    LGT RAIN  37  34  87 E9        29.59S
SILVER BAY     LGT RAIN  36  36 100 E6        29.61R
GRAND MARAIS     N/A     36  34  92 NE6       29.66S
G MARAIS ARPRT MIX PCPN  32  28  86 CALM      29.63S
$$
MNZ029>031-032-039>041-046>048-054>057-064-210200-
   West Central Minnesota

CITY           SKY/WX    TMP DP  RH WIND       PRES   REMARKS
FERGUS FALLS   CLOUDY    36  36 100 SE17      29.50S
WHEATON        CLOUDY    43  43 100 SE14      29.47S FOG
MORRIS         CLOUDY    34  34 100 SE15      29.47R FOG     WCI  24
ALEXANDRIA     CLOUDY    34  33  96 SE13      29.50S FOG     WCI  25
ELBOW LAKE     CLOUDY    34  34 100 SE12G17   29.47S FOG     WCI  25
WADENA         CLOUDY    34  34 100 SE9       29.50F FOG     WCI  26
GLENWOOD       CLOUDY    34  34 100 E10       29.51S FOG     WCI  26
APPLETON       CLOUDY    36  34  93 SE13      29.48R FOG
BENSON         CLOUDY    37  34  87 S12       29.51R
ORTONVILLE     CLOUDY    36  34  93 SE14      29.46R FOG
MADISON        CLOUDY    37  37 100 SE12      29.47R FOG
WILLMAR        CLOUDY    36  36 100 SE12      29.52S FOG
$$
MNZ033>034-036-042>043-049>051-058-059-210200-
   Central Minnesota

CITY           SKY/WX    TMP DP  RH WIND       PRES   REMARKS
ST CLOUD       FOG       34  34 100 E5        29.53F VSB 1/2 WCI  30
SAUK CENTRE    LGT SNOW  33  33 100 E8        29.51F WCI  26
PAYNESVILLE    FOG       34  34 100 SE8       29.52F VSB 3/4 WCI  27
AITKIN         CLOUDY    37  34  87 SE6       29.55R
PINE RIVER     CLOUDY    34  34 100 SE8       29.57S FOG     WCI  27
BRAINERD       FOG       34  34 100 SE6       29.54S VSB 1   WCI  29
STAPLES        CLOUDY    34  34 100 SE5       29.52S FOG     WCI  30
LONG PRAIRIE   CLOUDY    32  32 100 E7        29.52S FOG     WCI  26
LITTLE FALLS   FOG       34  32  93 E5        29.54F VSB 1/2 WCI  30
LITCHFIELD     FOG       36  36 100 E7        29.52F VSB 1/2
BUFFALO        FOG       34  33  96 E5        29.55S VSB 1   WCI  30
MAPLE LAKE     FOG       35  35  99 MISG      29.54F VSB 1/4
HUTCHINSON     FOG       35  35 100 E9        29.53F VSB 3/4 WCI  28
$$
MNZ037-044-045-052-053-210200-
   East Central Minnesota

CITY           SKY/WX    TMP DP  RH WIND       PRES   REMARKS
PRINCETON      FOG       36  36 100 E3        29.55F VSB 3/4
MORA           CLOUDY    32  32 100 E3        29.58F FOG
CAMBRIDGE      FOG       37  36  93 SE5       29.55S VSB 3/4
RUSH CITY      CLOUDY    34  34 100 SE3       29.58S FOG
MOOSE LAKE     CLOUDY    36  34  93 CALM      29.56S FOG
HINCKLEY       CLOUDY    36  36 100 CALM      29.57F FOG
CLOQUET        FOG       34  34 100 E5        29.57S VSB 3/4 WCI  30
MCGREGOR       CLOUDY    36  34  93 SE5       29.57R
$$
MNZ071>073-080-081-089-090-097-098-210200-
   Southwest Minnesota

CITY           SKY/WX    TMP DP  RH WIND       PRES   REMARKS
MONTEVIDEO     FOG       34  34 100 S12       29.51R VSB 1   WCI  25
GRANITE FALLS  CLOUDY    37  36  98 E9        29.51R FOG
CANBY          CLOUDY    37  36  99 CALM      29.47R FOG
MARSHALL       FOG       36  36 100 SE12      29.49R VSB 1
REDWOOD FALLS  CLOUDY    35  34  96 SE10      29.51R FOG     WCI  27
OLIVIA         FOG       34  34 100 SE8       29.51S VSB 1   WCI  27
PIPESTONE      DRZL/FOG  37  37 100 S10       29.44S VSB 1/2
WINDOM         FOG       36  36 100 SE7       29.51R VSB 1/2
WORTHINGTON    FOG       35  35 100 SE9       29.49R VSB 1/2 WCI  28
JACKSON        FOG       34  34 100 SE6       29.52R VSB 1/2 WCI  29
TRACY          CLOUDY    37  37 100 SE8       29.49R FOG
SLAYTON        FOG       35  35 100 SE8       29.48R VSB 1/2 WCI  28
$$
MNZ065>067-074>077-082>085-091>093-210200-
   South Central Minnesota

CITY           SKY/WX    TMP DP  RH WIND       PRES   REMARKS
MANKATO        FOG       34  33  96 SE10      29.55R VSB 1   WCI  26
NEW ULM        CLOUDY    36  34  93 SE7       29.53R FOG
ST JAMES       FOG       34  34 100 E8        29.54R VSB 1/2 WCI  27
FAIRMONT       FOG       35  34  96 SE9       29.54R VSB 3/4 WCI  28
GLENCOE        FOG       35  35 100 E7        29.53F VSB 1/2 WCI  29
FARIBAULT        N/A     36  34  93 E8        29.56S FOG
OWATONNA       CLOUDY    36  34  93 SE10      29.55S FOG
WASECA         FOG       34  34 100 E8        29.57R VSB 1/2 WCI  27
ALBERT LEA     FOG       34  34 100 SE8       29.55R VSB 1/4 WCI  27
$$
MNZ078>079-086>088-094>096-210200-
   Southeast Minnesota

CITY           SKY/WX    TMP DP  RH WIND       PRES   REMARKS
ROCHESTER      FOG       33  33 100 SE10      29.57R VSB 1/4 WCI  25
RED WING       FOG       36  36 100 SE7       29.57F VSB 3/4
STANTON        CLOUDY    36  35  94 SE6       29.55S FOG
DODGE CENTER   FOG       34  34 100 CALM      29.56R VSB 1/4
WINONA         CLOUDY    36  36 100 SE6       29.61R FOG
AUSTIN         DRZL/FOG  34  32  93 SE8       29.56R VSB 1/2 WCI  27
PRESTON        FOG       33  33  97 SE6       29.58R VSB 1/4 WCI  28
$$
ABBREVIATIONS USED IN REMARKS
   TC - TEMPERATURES IN CELSIUS
  WCI - WIND CHILL INDEX
   HX - HEAT INDEX
  VSB - VISIBILITY
$$




USA.gov is the U.S. government's official web portal to all federal, state and local government web resources and services.